Date String (YYYY-MM-DD hh:mm:ss) UTC,Instrument flags,Ambient pressure (hPa),Sample flow (lpm),Bypass flow (lpm),Sample temperature (°C),Ambient temperature (°C),ASC tube jacket temperature (°C),LED temperature (°C),Box temperature (°C),Sample RH (%),Span deviation,Mass concentration (μg/m³),Mass concentration (μg/m³),Mass concentration (μg/m³)
DateTimeUTC,F1_M11,P_M11,Q1_M11,Q2_M11,T1_M11,T2_M11,T3_M11,T4_M11,T5_M11,U1_M11,ZSPAN_M11,X0_M11,X2_M11,X1_M11
2023-01-14 15:00:00,,0819.9,4.99,0.00,22.6,21.2,00.0,31.5,24.3,12.2,0000.0,0001.34,0001.05,0000.94
2023-01-14 15:01:00,,0819.9,4.99,0.00,22.6,21.2,00.0,31.5,24.4,12.2,0000.0,0001.33,0001.03,0000.91
2023-01-14 15:02:00,,0820.0,4.99,0.00,22.6,21.2,00.0,31.5,24.4,12.3,0000.0,0001.37,0001.03,0000.90
2023-01-14 15:03:00,,0819.9,5.01,0.00,22.6,21.2,00.0,31.5,24.4,12.3,0000.0,0001.41,0001.04,0000.90
2023-01-14 15:04:00,,0819.9,5.00,0.00,22.6,21.2,00.0,31.5,24.4,12.3,0000.0,0001.43,0001.03,0000.88
2023-01-14 15:05:00,,0819.9,5.00,0.00,22.6,21.2,00.0,31.4,24.4,12.2,0000.0,0001.42,0001.01,0000.85
2023-01-14 15:06:00,,0819.9,5.00,0.00,22.6,21.3,00.0,31.4,24.3,12.3,0000.0,0001.32,0000.94,0000.80
2023-01-14 15:07:00,,0819.9,5.00,0.00,22.6,21.3,00.0,31.4,24.4,12.4,0000.0,0001.24,0000.89,0000.76
2023-01-14 15:08:00,,0820.0,5.00,0.00,22.6,21.3,00.0,31.4,24.4,12.4,0000.0,0001.18,0000.84,0000.72
2023-01-14 15:09:00,,0820.0,5.00,0.00,22.6,21.1,00.0,31.4,24.3,12.7,0000.0,0001.17,0000.84,0000.71
2023-01-14 15:10:00,,0820.0,4.99,0.00,22.5,21.0,00.0,31.4,24.3,12.7,0000.0,0001.18,0000.86,0000.74
2023-01-14 15:11:00,,0820.0,5.01,0.00,22.5,21.0,00.0,31.4,24.3,12.6,0000.0,0001.37,0000.94,0000.81
2023-01-14 15:12:00,,0820.0,5.01,0.00,22.5,21.1,00.0,31.4,24.3,12.8,0000.0,0001.46,0001.00,0000.88
2023-01-14 15:13:00,,0819.9,5.01,0.00,22.5,21.1,00.0,31.4,24.2,12.7,0000.0,0001.46,0001.03,0000.92
2023-01-14 15:14:00,,0819.9,4.99,0.00,22.5,21.2,00.0,31.4,24.2,12.5,0000.0,0001.40,0001.03,0000.95
2023-01-14 15:15:00,,0819.9,5.00,0.00,22.5,21.2,00.0,31.4,24.3,12.4,0000.0,0001.38,0001.03,0000.97
2023-01-14 15:16:00,,0819.9,4.99,0.00,22.5,21.3,00.0,31.4,24.3,12.7,0000.0,0001.36,0001.04,0000.99
2023-01-14 15:17:00,,0819.8,5.00,0.00,22.6,21.3,00.0,31.4,24.4,12.5,0000.0,0001.44,0001.09,0001.02
2023-01-14 15:18:00,,0819.8,5.00,0.00,22.6,21.4,00.0,31.4,24.4,12.4,0000.0,0001.48,0001.11,0001.03
2023-01-14 15:19:00,,0819.8,5.00,0.00,22.6,21.4,00.0,31.4,24.5,12.4,0000.0,0001.50,0001.12,0001.04
2023-01-14 15:20:00,,0819.8,5.00,0.00,22.6,21.4,00.0,31.4,24.5,12.3,0000.0,0001.46,0001.10,0001.04
2023-01-14 15:21:00,,0819.8,5.01,0.00,22.6,21.4,00.0,31.4,24.5,12.5,0000.0,0001.46,0001.09,0001.03
2023-01-14 15:22:00,,0819.8,4.99,0.00,22.6,21.5,00.0,31.4,24.5,12.9,0000.0,0001.35,0001.07,0001.01
2023-01-14 15:23:00,,0819.9,4.99,0.00,22.6,21.4,00.0,31.4,24.5,12.7,0000.0,0001.32,0001.07,0001.00
2023-01-14 15:24:00,,0819.8,4.99,0.00,22.6,21.4,00.0,31.5,24.5,12.5,0000.0,0001.30,0001.05,0000.98
2023-01-14 15:25:00,,0819.8,5.00,0.00,22.6,21.4,00.0,31.5,24.5,12.5,0000.0,0001.29,0001.03,0000.97
2023-01-14 15:26:00,,0819.7,5.00,0.00,22.7,21.4,00.0,31.5,24.5,12.5,0000.0,0001.30,0001.04,0000.97
2023-01-14 15:27:00,,0819.7,5.01,0.00,22.7,21.5,00.0,31.5,24.5,12.5,0000.0,0001.30,0001.04,0000.97
2023-01-14 15:28:00,,0819.8,5.01,0.00,22.7,21.5,00.0,31.5,24.5,12.4,0000.0,0001.28,0001.03,0000.97
2023-01-14 15:29:00,,0819.8,4.99,0.00,22.7,21.5,00.0,31.5,24.6,12.6,0000.0,0001.24,0001.02,0000.98
2023-01-14 15:30:00,,0819.8,4.99,0.00,22.7,21.5,00.0,31.5,24.6,12.5,0000.0,0001.28,0001.04,0000.99
2023-01-14 15:31:00,,0819.8,5.00,0.00,22.7,21.5,00.0,31.5,24.6,12.3,0000.0,0001.33,0001.05,0000.99
2023-01-14 15:32:00,,0819.8,5.00,0.00,22.7,21.6,00.0,31.5,24.6,12.3,0000.0,0001.33,0001.04,0000.97
2023-01-14 15:33:00,,0819.9,5.02,0.00,22.7,21.6,00.0,31.5,24.6,12.3,0000.0,0001.31,0001.01,0000.95
2023-01-14 15:34:00,,0819.8,5.02,0.00,22.8,21.6,00.0,31.5,24.6,12.2,0000.0,0001.24,0000.97,0000.92
2023-01-14 15:35:00,,0819.8,5.00,0.00,22.8,21.7,00.0,31.5,24.7,12.2,0000.0,0001.22,0000.95,0000.90
2023-01-14 15:36:00,,0819.8,5.01,0.00,22.8,21.7,00.0,31.6,24.7,12.2,0000.0,0001.18,0000.92,0000.86
2023-01-14 15:37:00,,0819.7,5.00,0.00,22.8,21.7,00.0,31.6,24.7,12.2,0000.0,0001.16,0000.90,0000.83
2023-01-14 15:38:00,,0819.7,5.01,0.00,22.8,21.7,00.0,31.6,24.7,12.0,0000.0,0001.16,0000.89,0000.83
2023-01-14 15:39:00,,0819.5,5.00,0.00,22.8,21.6,00.0,31.6,24.7,11.9,0000.0,0001.23,0000.96,0000.88
2023-01-14 15:40:00,,0819.5,5.00,0.00,22.9,21.7,00.0,31.6,24.7,11.9,0000.0,0001.30,0001.01,0000.92
2023-01-14 15:41:00,,0819.6,5.00,0.00,22.9,21.7,00.0,31.6,24.7,12.1,0000.0,0001.31,0001.03,0000.95
2023-01-14 15:42:00,,0819.7,5.00,0.00,22.9,21.7,00.0,31.6,24.7,12.1,0000.0,0001.31,0001.06,0001.00
2023-01-14 15:43:00,,0819.6,5.00,0.00,22.8,21.6,00.0,31.6,24.7,12.3,0000.0,0001.31,0001.07,0001.02
2023-01-14 15:44:00,,0819.6,5.00,0.00,22.8,21.6,00.0,31.6,24.7,12.3,0000.0,0001.28,0001.06,0001.02
2023-01-14 15:45:00,,0819.6,5.01,0.00,22.9,21.6,00.0,31.6,24.7,12.6,0000.0,0001.34,0001.08,0001.02
2023-01-14 15:46:00,,0819.6,5.00,0.00,22.9,21.7,00.0,31.6,24.7,12.9,0000.0,0001.44,0001.09,0001.03
2023-01-14 15:47:00,,0819.5,4.99,0.00,22.9,21.7,00.0,31.7,24.8,12.8,0000.0,0001.46,0001.10,0001.04
2023-01-14 15:48:00,,0819.6,4.99,0.00,22.9,21.7,00.0,31.7,24.8,12.8,0000.0,0001.47,0001.11,0001.06
2023-01-14 15:49:00,,0819.5,4.99,0.00,22.9,21.7,00.0,31.7,24.8,12.9,0000.0,0001.47,0001.11,0001.06
2023-01-14 15:50:00,,0819.5,5.00,0.00,22.9,21.8,00.0,31.7,24.8,12.8,0000.0,0001.42,0001.06,0001.02
2023-01-14 15:51:00,,0819.5,4.99,0.00,22.9,21.8,00.0,31.7,24.8,13.0,0000.0,0001.35,0001.01,0000.97
2023-01-14 15:52:00,,0819.5,5.00,0.00,22.9,21.8,00.0,31.7,24.8,12.8,0000.0,0001.33,0000.97,0000.93
2023-01-14 15:53:00,,0819.6,5.00,0.00,23.0,21.8,00.0,31.7,24.8,12.6,0000.0,0001.26,0000.92,0000.87
2023-01-14 15:54:00,,0819.5,5.00,0.00,23.0,21.9,00.0,31.7,24.8,12.4,0000.0,0001.29,0000.91,0000.84
2023-01-14 15:55:00,,0819.5,5.00,0.00,23.0,21.9,00.0,31.7,24.8,12.3,0000.0,0001.33,0000.92,0000.85
2023-01-14 15:56:00,,0819.4,5.00,0.00,23.0,21.9,00.0,31.8,24.8,12.2,0000.0,0001.29,0000.91,0000.85
2023-01-14 15:57:00,,0819.4,5.00,0.00,23.0,21.9,00.0,31.8,24.9,12.2,0000.0,0001.17,0000.91,0000.85
2023-01-14 15:58:00,,0819.4,5.00,0.00,23.0,21.9,00.0,31.8,24.9,12.3,0000.0,0001.18,0000.92,0000.86
2023-01-14 15:59:00,,0819.4,5.00,0.00,23.0,21.9,00.0,31.8,24.9,12.3,0000.0,0001.18,0000.93,0000.87
